Flag for U.S.A. Weather past 2 weeks in Appleton, Wisconsin, U.S.A.

Now
70 °F

Clear.


Feels Like: 70 °F
Forecast: 64 / 84 °F
Wind: 6 mph from South

Location: Appleton / Outagamie

Current Time: Jul 5, 2015 at 12:10:38 AM

Latest Report: Jul 4, 2015 at 11:35 PM


Visibility: 5 mi

Pressure: 30.00 "Hg

Humidity: 73%

Dew point: 61 °F

Location of AppletonLocation

Historic Weather in Appleton — Graph

°F

Appleton temperature yesterday

Maximum temperature yesterday: 81 °F (at 3:45 PM)
Minimum temperature yesterday: 61 °F (at 3:55 AM)
Average temperature yesterday: 68 °F

Past Weeks' High & Low Weather Summary

 TemperatureHumidityPressure
High81 °F (Jun 22, 4:45 PM)100% (Jun 21, 12:55 AM)30.15 "Hg (Jun 21, 12:55 AM)
Low46 °F (Jul 1, 3:35 AM)27% (Jun 27, 3:45 PM)29.64 "Hg (Jun 22, 2:45 PM)
Average64 °F70%29.95 "Hg
* Reported Jun 19 11:15 PM — Jul 4 10:45 PM, Appleton, Weather by CustomWeather, © 2015

Note: Actual official high and low records may vary slightly from our data, if they occured in-between our weather recording intervals... More about our weather records

Advertising

Appleton weather history for previous 24 hours

 ConditionsComfort  
Time TempWeatherWind HumidityBarometerVisibility
10:45 PM
Sat, Jul 4
72 °FPassing clouds.6 mph73%29.99 "Hg7 mi
9:45 PM72 °FPassing clouds.5 mph69%29.99 "Hg7 mi
8:45 PM73 °FPartly sunny.5 mph69%29.97 "Hg7 mi
7:45 PM77 °FPartly sunny.6 mph57%29.96 "Hg10 mi
5:45 PM79 °FPartly sunny.7 mph51%29.97 "Hg10 mi
4:45 PM79 °FPartly sunny.7 mph54%29.98 "Hg10 mi
3:45 PM81 °FPartly sunny.5 mph48%29.98 "Hg10 mi
2:45 PM79 °FPartly sunny.5 mph54%29.98 "Hg10 mi
1:45 PM79 °FBroken clouds.7 mph54%29.98 "Hg10 mi
12:45 PM75 °FPartly sunny.5 mph57%29.99 "Hg10 mi
11:45 AM75 °FPartly sunny.5 mph57%29.98 "Hg10 mi
10:45 AM73 °FSunny.No wind61%29.98 "Hg10 mi
9:45 AM72 °FSunny.No wind69%29.98 "Hg10 mi
8:45 AM66 °FSunny.7 mph73%29.97 "Hg10 mi
7:45 AM64 °FPassing clouds.9 mph78%29.96 "Hg10 mi
6:45 AM63 °FScattered clouds.9 mph94%29.97 "Hg10 mi
5:45 AM63 °FPassing clouds.9 mph88%29.95 "Hg10 mi
4:55 AM61 °FPassing clouds.8 mph94%29.94 "Hg10 mi
4:35 AM61 °FPassing clouds.8 mph94%29.93 "Hg10 mi
4:15 AM61 °FPassing clouds.8 mph83%29.93 "Hg10 mi
3:55 AM61 °FPassing clouds.9 mph83%29.93 "Hg10 mi
3:15 AM63 °FPassing clouds.7 mph77%29.93 "Hg10 mi
2:55 AM63 °FPassing clouds.8 mph77%29.93 "Hg10 mi
2:15 AM63 °FClear.8 mph77%29.92 "Hg10 mi
1:55 AM63 °FPassing clouds.8 mph77%29.92 "Hg10 mi
1:35 AM63 °FPassing clouds.8 mph77%29.92 "Hg10 mi
1:15 AM63 °FClear.8 mph77%29.92 "Hg10 mi
12:55 AM63 °FClear.7 mph77%29.93 "Hg10 mi
12:35 AM63 °FClear.6 mph77%29.93 "Hg10 mi
12:15 AM64 °FClear.8 mph73%29.93 "Hg10 mi
Weather by CustomWeather, © 2015

See weather overviewHow to use our weather pages